Time,TemperatureF,DewpointF,PressureIn,WindDirection,WindDirectionDegrees,WindSpeedMPH,WindSpeedGustMPH,Humidity,HourlyPrecipIn,Conditions,Clouds,dailyrainin,SoftwareType,DateUTC
2013-03-26 00:01:00,34.8,26.0,29.85,WNW,293,0.0,1.0,70,0.00,,,0.00,Wunderground v.1.15,2013-03-26 04:01:00,
2013-03-26 00:02:00,34.8,26.0,29.85,WNW,294,0.0,1.0,70,0.00,,,0.00,Wunderground v.1.15,2013-03-26 04:02:00,
2013-03-26 00:04:00,34.6,25.8,29.85,WNW,294,0.0,1.0,70,0.00,,,0.00,Wunderground v.1.15,2013-03-26 04:04:00,
2013-03-26 00:06:00,34.4,26.0,29.85,WNW,294,0.0,1.0,71,0.00,,,0.00,Wunderground v.1.15,2013-03-26 04:06:00,
2013-03-26 00:12:00,34.4,27.0,29.86,West,273,0.0,0.0,74,0.00,,,0.00,Wunderground v.1.15,2013-03-26 04:12:00,
2013-03-26 00:17:00,34.4,26.6,29.86,NW,304,2.0,2.0,73,0.00,,,0.00,Wunderground v.1.15,2013-03-26 04:17:00,
2013-03-26 00:23:00,34.4,26.3,29.86,WNW,296,3.0,7.0,72,0.00,,,0.00,Wunderground v.1.15,2013-03-26 04:23:00,
2013-03-26 00:28:00,34.4,26.6,29.86,WNW,295,3.0,7.0,73,0.00,,,0.00,Wunderground v.1.15,2013-03-26 04:28:00,
2013-03-26 00:33:00,34.4,26.6,29.86,WNW,286,2.0,5.0,73,0.00,,,0.00,Wunderground v.1.15,2013-03-26 04:33:00,
2013-03-26 00:39:00,34.4,26.3,29.85,NW,310,6.0,6.0,72,0.00,,,0.00,Wunderground v.1.15,2013-03-26 04:39:00,
2013-03-26 00:44:00,34.4,26.6,29.85,NW,309,0.0,4.0,73,0.00,,,0.00,Wunderground v.1.15,2013-03-26 04:44:00,
2013-03-26 00:50:00,34.3,26.5,29.86,WNW,302,0.0,1.0,73,0.00,,,0.00,Wunderground v.1.15,2013-03-26 04:50:00,
2013-03-26 00:55:00,34.1,27.0,29.86,WNW,302,0.0,1.0,75,0.00,,,0.00,Wunderground v.1.15,2013-03-26 04:55:00,
2013-03-26 01:02:00,33.9,26.5,29.86,WNW,302,0.0,1.0,74,0.00,,,0.00,Wunderground v.1.15,2013-03-26 05:02:00,
2013-03-26 01:07:00,33.8,26.4,29.86,WNW,303,0.0,2.0,74,0.00,,,0.00,Wunderground v.1.15,2013-03-26 05:07:00,
2013-03-26 01:13:00,33.6,26.2,29.85,NW,309,1.0,1.0,74,0.00,,,0.00,Wunderground v.1.15,2013-03-26 05:13:00,
2013-03-26 01:18:00,33.5,26.4,29.86,NW,309,0.0,1.0,75,0.00,,,0.00,Wunderground v.1.15,2013-03-26 05:18:00,
2013-03-26 01:24:00,33.2,26.1,29.86,NW,309,0.0,0.0,75,0.00,,,0.00,Wunderground v.1.15,2013-03-26 05:24:00,
2013-03-26 01:29:00,32.7,26.0,29.86,NW,309,0.0,0.0,76,0.00,,,0.00,Wunderground v.1.15,2013-03-26 05:29:00,
2013-03-26 01:35:00,32.3,26.2,29.86,NW,309,0.0,1.0,78,0.00,,,0.00,Wunderground v.1.15,2013-03-26 05:35:00,
2013-03-26 01:41:00,32.5,25.8,29.86,NW,309,0.0,0.0,76,0.00,,,0.00,Wunderground v.1.15,2013-03-26 05:41:00,
2013-03-26 01:46:00,32.4,25.7,29.86,WNW,302,0.0,0.0,76,0.00,,,0.00,Wunderground v.1.15,2013-03-26 05:46:00,
2013-03-26 01:52:00,32.4,26.0,29.86,WNW,302,0.0,0.0,77,0.00,,,0.00,Wunderground v.1.15,2013-03-26 05:52:00,
2013-03-26 01:57:00,32.3,25.9,29.86,WNW,302,0.0,0.0,77,0.00,,,0.00,Wunderground v.1.15,2013-03-26 05:57:00,
2013-03-26 02:02:00,32.5,25.8,29.86,WNW,303,0.0,0.0,76,0.00,,,0.00,Wunderground v.1.15,2013-03-26 06:02:00,
2013-03-26 02:07:00,32.5,25.5,29.86,NW,304,0.0,0.0,75,0.00,,,0.00,Wunderground v.1.15,2013-03-26 06:07:00,
2013-03-26 02:12:00,32.3,25.6,29.87,WNW,303,1.0,1.0,76,0.00,,,0.00,Wunderground v.1.15,2013-03-26 06:12:00,
2013-03-26 02:17:00,32.4,26.0,29.86,WNW,303,0.0,2.0,77,0.00,,,0.00,Wunderground v.1.15,2013-03-26 06:17:00,
2013-03-26 02:22:00,32.5,26.1,29.86,WNW,303,0.0,0.0,77,0.00,,,0.00,Wunderground v.1.15,2013-03-26 06:22:00,
2013-03-26 02:27:00,32.5,25.8,29.86,WNW,303,0.0,0.0,76,0.00,,,0.00,Wunderground v.1.15,2013-03-26 06:27:00,
2013-03-26 02:32:00,32.3,25.6,29.86,NW,304,0.0,1.0,76,0.00,,,0.00,Wunderground v.1.15,2013-03-26 06:32:00,
2013-03-26 02:37:00,32.1,25.7,29.86,NW,304,0.0,1.0,77,0.00,,,0.00,Wunderground v.1.15,2013-03-26 06:37:00,
2013-03-26 02:42:00,32.0,25.3,29.87,WNW,303,0.0,0.0,76,0.00,,,0.00,Wunderground v.1.15,2013-03-26 06:42:00,
2013-03-26 02:47:00,31.9,25.5,29.87,NW,304,1.0,2.0,77,0.00,,,0.00,Wunderground v.1.15,2013-03-26 06:47:00,
2013-03-26 02:52:00,32.0,25.9,29.86,NW,304,1.0,1.0,78,0.00,,,0.00,Wunderground v.1.15,2013-03-26 06:52:00,
2013-03-26 02:57:00,32.0,25.6,29.87,WNW,303,0.0,1.0,77,0.00,,,0.00,Wunderground v.1.15,2013-03-26 06:57:00,
2013-03-26 03:02:00,31.9,25.5,29.87,NW,304,0.0,0.0,77,0.00,,,0.00,Wunderground v.1.15,2013-03-26 07:02:00,
2013-03-26 03:07:00,31.9,25.5,29.87,WNW,303,0.0,0.0,77,0.00,,,0.00,Wunderground v.1.15,2013-03-26 07:07:00,
2013-03-26 03:12:00,31.9,25.5,29.87,NW,304,0.0,0.0,77,0.00,,,0.00,Wunderground v.1.15,2013-03-26 07:12:00,
2013-03-26 03:17:00,31.7,25.3,29.87,WNW,303,0.0,0.0,77,0.00,,,0.00,Wunderground v.1.15,2013-03-26 07:17:00,
2013-03-26 03:22:00,31.6,25.2,29.86,WNW,303,0.0,1.0,77,0.00,,,0.00,Wunderground v.1.15,2013-03-26 07:22:00,
2013-03-26 03:28:00,31.4,25.0,29.87,WNW,303,0.0,1.0,77,0.00,,,0.00,Wunderground v.1.15,2013-03-26 07:28:00,
2013-03-26 03:33:00,31.3,25.2,29.87,NW,315,0.0,1.0,78,0.00,,,-99.99,WeatherLink 6.0.0,2013-03-26 07:33:00,
2013-03-26 03:38:00,31.0,25.2,29.87,WNW,303,0.0,1.0,79,0.00,,,0.00,Wunderground v.1.15,2013-03-26 07:38:00,
2013-03-26 03:43:00,30.8,25.1,29.87,WNW,303,0.0,0.0,79,0.00,,,0.00,Wunderground v.1.15,2013-03-26 07:43:00,
2013-03-26 03:48:00,30.7,24.7,29.87,NW,304,0.0,0.0,78,0.00,,,0.00,Wunderground v.1.15,2013-03-26 07:48:00,
2013-03-26 03:53:00,30.7,25.0,29.87,NW,304,0.0,0.0,79,0.00,,,0.00,Wunderground v.1.15,2013-03-26 07:53:00,
2013-03-26 03:58:00,30.6,24.9,29.87,NW,304,0.0,0.0,79,0.00,,,0.00,Wunderground v.1.15,2013-03-26 07:58:00,
2013-03-26 04:00:00,30.5,24.8,29.87,WNW,292,0.0,1.0,79,0.00,,,-99.99,WeatherLink 6.0.0,2013-03-26 08:00:00,
2013-03-26 04:03:00,30.4,24.7,29.87,WNW,303,0.0,1.0,79,0.00,,,0.00,Wunderground v.1.15,2013-03-26 08:03:00,
2013-03-26 04:08:00,30.5,25.1,29.87,WNW,303,0.0,1.0,80,0.00,,,0.00,Wunderground v.1.15,2013-03-26 08:08:00,
2013-03-26 04:13:00,30.4,25.0,29.87,NW,304,0.0,0.0,80,0.00,,,0.00,Wunderground v.1.15,2013-03-26 08:13:00,
2013-03-26 04:18:00,30.1,24.7,29.87,NW,304,0.0,0.0,80,0.00,,,0.00,Wunderground v.1.15,2013-03-26 08:18:00,
2013-03-26 04:23:00,30.1,25.0,29.87,NW,304,0.0,0.0,81,0.00,,,0.00,Wunderground v.1.15,2013-03-26 08:23:00,
2013-03-26 04:28:00,30.0,24.9,29.87,NW,304,0.0,0.0,81,0.00,,,0.00,Wunderground v.1.15,2013-03-26 08:28:00,
2013-03-26 04:33:00,30.0,24.6,29.87,NW,315,0.0,1.0,80,0.00,,,-99.99,WeatherLink 6.0.0,2013-03-26 08:33:00,
2013-03-26 04:38:00,29.9,24.8,29.87,NW,304,0.0,0.0,81,0.00,,,0.00,Wunderground v.1.15,2013-03-26 08:38:00,
2013-03-26 04:43:00,29.8,24.7,29.86,WNW,303,0.0,0.0,81,0.00,,,0.00,Wunderground v.1.15,2013-03-26 08:43:00,
2013-03-26 04:48:00,29.9,25.4,29.87,WNW,303,0.0,0.0,83,0.00,,,0.00,Wunderground v.1.15,2013-03-26 08:48:00,
2013-03-26 04:53:00,29.9,25.1,29.87,NW,304,0.0,1.0,82,0.00,,,0.00,Wunderground v.1.15,2013-03-26 08:53:00,
2013-03-26 04:58:00,29.9,25.1,29.87,NW,304,0.0,1.0,82,0.00,,,0.00,Wunderground v.1.15,2013-03-26 08:58:00,
2013-03-26 05:03:00,30.0,25.2,29.87,NW,304,0.0,0.0,82,0.00,,,0.00,Wunderground v.1.15,2013-03-26 09:03:00,
2013-03-26 05:08:00,30.0,24.9,29.88,NW,304,0.0,0.0,81,0.00,,,0.00,Wunderground v.1.15,2013-03-26 09:08:00,
2013-03-26 05:13:00,30.0,24.9,29.87,NW,304,0.0,1.0,81,0.00,,,0.00,Wunderground v.1.15,2013-03-26 09:13:00,
2013-03-26 05:18:00,30.3,25.2,29.88,WNW,303,0.0,1.0,81,0.00,,,0.00,Wunderground v.1.15,2013-03-26 09:18:00,
2013-03-26 05:23:00,30.4,25.0,29.88,NW,304,0.0,0.0,80,0.00,,,0.00,Wunderground v.1.15,2013-03-26 09:23:00,
2013-03-26 05:28:00,30.5,25.1,29.87,NW,304,0.0,0.0,80,0.00,,,0.00,Wunderground v.1.15,2013-03-26 09:28:00,
2013-03-26 05:33:00,30.5,25.1,29.87,NW,304,0.0,0.0,80,0.00,,,0.00,Wunderground v.1.15,2013-03-26 09:33:00,
2013-03-26 05:38:00,30.3,24.9,29.88,WNW,303,0.0,0.0,80,0.00,,,0.00,Wunderground v.1.15,2013-03-26 09:38:00,
2013-03-26 05:43:00,30.2,24.8,29.87,WNW,303,0.0,0.0,80,0.00,,,0.00,Wunderground v.1.15,2013-03-26 09:43:00,
2013-03-26 05:48:00,30.3,24.9,29.87,NW,304,0.0,2.0,80,0.00,,,0.00,Wunderground v.1.15,2013-03-26 09:48:00,
2013-03-26 05:54:00,30.8,25.1,29.87,WNW,302,0.0,1.0,79,0.00,,,0.00,Wunderground v.1.15,2013-03-26 09:54:00,
2013-03-26 05:59:00,31.0,24.9,29.87,WNW,302,0.0,3.0,78,0.00,,,0.00,Wunderground v.1.15,2013-03-26 09:59:00,
2013-03-26 06:04:00,31.4,25.3,29.88,WNW,303,0.0,2.0,78,0.00,,,0.00,Wunderground v.1.15,2013-03-26 10:04:00,
2013-03-26 06:09:00,31.6,25.2,29.88,WNW,303,0.0,2.0,77,0.00,,,0.00,Wunderground v.1.15,2013-03-26 10:09:00,
2013-03-26 06:14:00,31.7,25.6,29.88,WNW,303,0.0,1.0,78,0.00,,,0.00,Wunderground v.1.15,2013-03-26 10:14:00,
2013-03-26 06:19:00,31.7,25.3,29.88,WNW,303,0.0,1.0,77,0.00,,,0.00,Wunderground v.1.15,2013-03-26 10:19:00,
2013-03-26 06:24:00,31.5,25.1,29.88,WNW,303,0.0,1.0,77,0.00,,,0.00,Wunderground v.1.15,2013-03-26 10:24:00,
2013-03-26 06:29:00,31.4,25.0,29.89,WNW,302,0.0,2.0,77,0.00,,,0.00,Wunderground v.1.15,2013-03-26 10:29:00,
2013-03-26 06:34:00,31.6,25.2,29.88,WNW,303,0.0,2.0,77,0.00,,,0.00,Wunderground v.1.15,2013-03-26 10:34:00,
2013-03-26 06:39:00,31.7,24.7,29.89,NW,304,0.0,2.0,75,0.00,,,0.00,Wunderground v.1.15,2013-03-26 10:39:00,
2013-03-26 06:44:00,31.9,25.2,29.89,NW,306,1.0,3.0,76,0.00,,,0.00,Wunderground v.1.15,2013-03-26 10:44:00,
2013-03-26 06:49:00,32.0,25.0,29.89,WNW,298,1.0,3.0,75,0.00,,,0.00,Wunderground v.1.15,2013-03-26 10:49:00,
2013-03-26 06:54:00,32.0,25.0,29.89,WNW,296,1.0,3.0,75,0.00,,,0.00,Wunderground v.1.15,2013-03-26 10:54:00,
2013-03-26 06:59:00,32.1,24.7,29.89,WNW,300,1.0,4.0,74,0.00,,,0.00,Wunderground v.1.15,2013-03-26 10:59:00,
2013-03-26 07:04:00,32.0,24.6,29.89,WNW,299,0.0,2.0,74,0.00,,,0.00,Wunderground v.1.15,2013-03-26 11:04:00,
2013-03-26 07:09:00,32.0,25.0,29.90,WNW,300,0.0,2.0,75,0.00,,,0.00,Wunderground v.1.15,2013-03-26 11:09:00,
2013-03-26 07:14:00,32.1,25.4,29.90,WNW,300,0.0,0.0,76,0.00,,,0.00,Wunderground v.1.15,2013-03-26 11:14:00,
2013-03-26 07:19:00,31.8,24.5,29.90,WNW,300,0.0,0.0,74,0.00,,,0.00,Wunderground v.1.15,2013-03-26 11:19:00,
2013-03-26 07:24:00,31.5,24.5,29.90,WNW,300,0.0,0.0,75,0.00,,,0.00,Wunderground v.1.15,2013-03-26 11:24:00,
2013-03-26 07:29:00,31.1,24.7,29.91,WNW,300,0.0,0.0,77,0.00,,,0.00,Wunderground v.1.15,2013-03-26 11:29:00,
2013-03-26 07:34:00,31.0,24.6,29.91,WNW,300,0.0,0.0,77,0.00,,,0.00,Wunderground v.1.15,2013-03-26 11:34:00,
2013-03-26 07:39:00,30.7,24.0,29.91,WNW,300,0.0,0.0,76,0.00,,,0.00,Wunderground v.1.15,2013-03-26 11:39:00,
2013-03-26 07:45:00,30.6,24.2,29.91,WNW,300,0.0,0.0,77,0.00,,,0.00,Wunderground v.1.15,2013-03-26 11:45:00,
2013-03-26 07:50:00,30.6,24.6,29.91,WNW,300,0.0,0.0,78,0.00,,,0.00,Wunderground v.1.15,2013-03-26 11:50:00,
2013-03-26 07:55:00,30.7,25.0,29.92,WNW,300,0.0,0.0,79,0.00,,,0.00,Wunderground v.1.15,2013-03-26 11:55:00,
2013-03-26 08:00:00,31.0,25.2,29.91,WNW,300,0.0,0.0,79,0.00,,,0.00,Wunderground v.1.15,2013-03-26 12:00:00,
2013-03-26 08:05:00,31.6,25.5,29.92,WNW,300,0.0,0.0,78,0.00,,,0.00,Wunderground v.1.15,2013-03-26 12:05:00,
2013-03-26 08:10:00,32.3,25.6,29.92,WNW,300,0.0,0.0,76,0.00,,,0.00,Wunderground v.1.15,2013-03-26 12:10:00,
2013-03-26 08:15:00,33.2,25.8,29.92,WNW,301,0.0,3.0,74,0.00,,,0.00,Wunderground v.1.15,2013-03-26 12:15:00,
2013-03-26 08:20:00,34.1,26.7,29.92,NW,304,0.0,0.0,74,0.00,,,0.00,Wunderground v.1.15,2013-03-26 12:20:00,
2013-03-26 08:25:00,34.7,26.3,29.92,NW,306,0.0,3.0,71,0.00,,,0.00,Wunderground v.1.15,2013-03-26 12:25:00,
2013-03-26 08:30:00,35.2,26.0,29.92,NW,323,1.0,3.0,69,0.00,,,0.00,Wunderground v.1.15,2013-03-26 12:30:00,
2013-03-26 08:35:00,35.5,26.0,29.92,WNW,298,2.0,3.0,68,0.00,,,0.00,Wunderground v.1.15,2013-03-26 12:35:00,
2013-03-26 08:40:00,35.9,26.7,29.92,West,277,2.0,3.0,69,0.00,,,0.00,Wunderground v.1.15,2013-03-26 12:40:00,
2013-03-26 08:45:00,36.2,27.0,29.93,NW,315,2.0,4.0,69,0.00,,,0.00,Wunderground v.1.15,2013-03-26 12:45:00,
2013-03-26 08:50:00,36.6,27.0,29.92,WNW,292,0.0,1.0,68,0.00,,,0.00,Wunderground v.1.15,2013-03-26 12:50:00,
2013-03-26 08:55:00,36.9,27.0,29.93,WNW,295,4.0,5.0,67,0.00,,,0.00,Wunderground v.1.15,2013-03-26 12:55:00,
2013-03-26 09:00:00,37.2,26.5,29.93,NW,313,0.0,3.0,65,0.00,,,0.00,Wunderground v.1.15,2013-03-26 13:00:00,
2013-03-26 09:05:00,37.6,27.3,29.93,NW,310,1.0,3.0,66,0.00,,,0.00,Wunderground v.1.15,2013-03-26 13:05:00,
2013-03-26 09:10:00,38.1,27.7,29.93,WNW,300,0.0,1.0,66,0.00,,,0.00,Wunderground v.1.15,2013-03-26 13:10:00,
2013-03-26 09:15:00,38.6,27.8,29.93,North,350,0.0,6.0,65,0.00,,,0.00,Wunderground v.1.15,2013-03-26 13:15:00,
2013-03-26 09:20:00,39.0,27.8,29.94,WNW,298,0.0,1.0,64,0.00,,,0.00,Wunderground v.1.15,2013-03-26 13:20:00,
2013-03-26 09:25:00,39.4,27.5,29.94,WNW,297,3.0,9.0,62,0.00,,,0.00,Wunderground v.1.15,2013-03-26 13:25:00,
2013-03-26 09:30:00,39.5,27.2,29.94,WNW,298,3.0,6.0,61,0.00,,,0.00,Wunderground v.1.15,2013-03-26 13:30:00,
2013-03-26 09:35:00,39.7,27.3,29.94,NNW,329,1.0,8.0,61,0.00,,,0.00,Wunderground v.1.15,2013-03-26 13:35:00,
2013-03-26 09:40:00,40.1,27.7,29.94,NNE,17,1.0,3.0,61,0.00,,,0.00,Wunderground v.1.15,2013-03-26 13:40:00,
2013-03-26 09:45:00,40.4,27.6,29.94,NNE,31,1.0,5.0,60,0.00,,,0.00,Wunderground v.1.15,2013-03-26 13:45:00,
2013-03-26 09:50:00,40.8,27.6,29.95,NW,307,0.0,2.0,59,0.00,,,0.00,Wunderground v.1.15,2013-03-26 13:50:00,
2013-03-26 09:55:00,41.1,27.9,29.95,North,10,2.0,6.0,59,0.00,,,0.00,Wunderground v.1.15,2013-03-26 13:55:00,
2013-03-26 10:00:00,41.4,27.3,29.95,WNW,288,2.0,6.0,57,0.00,,,0.00,Wunderground v.1.15,2013-03-26 14:00:00,
2013-03-26 10:05:00,41.5,27.8,29.94,NNW,328,3.0,6.0,58,0.00,,,0.00,Wunderground v.1.15,2013-03-26 14:05:00,
2013-03-26 10:10:00,41.7,27.1,29.95,NW,326,3.0,4.0,56,0.00,,,0.00,Wunderground v.1.15,2013-03-26 14:10:00,
2013-03-26 10:15:00,41.6,27.1,29.94,NE,41,7.0,10.0,56,0.00,,,0.00,Wunderground v.1.15,2013-03-26 14:15:00,
2013-03-26 10:20:00,41.6,26.6,29.94,NNE,22,4.0,8.0,55,0.00,,,0.00,Wunderground v.1.15,2013-03-26 14:20:00,
2013-03-26 10:25:00,41.6,26.2,29.95,NW,306,0.0,10.0,54,0.00,,,0.00,Wunderground v.1.15,2013-03-26 14:25:00,
2013-03-26 10:31:00,41.8,26.8,29.95,West,280,0.0,7.0,55,0.00,,,0.00,Wunderground v.1.15,2013-03-26 14:31:00,
2013-03-26 10:36:00,41.7,26.3,29.95,WNW,292,5.0,10.0,54,0.00,,,0.00,Wunderground v.1.15,2013-03-26 14:36:00,
2013-03-26 10:41:00,41.5,27.0,29.95,WNW,289,3.0,4.0,56,0.00,,,0.00,Wunderground v.1.15,2013-03-26 14:41:00,
2013-03-26 10:46:00,41.5,27.0,29.95,WNW,292,3.0,8.0,56,0.00,,,0.00,Wunderground v.1.15,2013-03-26 14:46:00,
2013-03-26 10:51:00,41.6,26.6,29.96,WNW,287,4.0,7.0,55,0.00,,,0.00,Wunderground v.1.15,2013-03-26 14:51:00,
2013-03-26 10:57:00,41.5,26.1,29.96,NW,313,2.0,12.0,54,0.00,,,0.00,Wunderground v.1.15,2013-03-26 14:57:00,
2013-03-26 11:01:00,41.7,27.1,29.96,NW,309,1.0,5.0,56,0.00,,,0.00,Wunderground v.1.15,2013-03-26 15:01:00,
2013-03-26 11:07:00,42.0,26.5,29.97,WNW,303,3.0,6.0,54,0.00,,,0.00,Wunderground v.1.15,2013-03-26 15:07:00,
2013-03-26 11:12:00,41.9,27.3,29.97,WNW,295,1.0,5.0,56,0.00,,,0.00,Wunderground v.1.15,2013-03-26 15:12:00,
2013-03-26 11:17:00,42.0,27.0,29.97,NW,324,1.0,5.0,55,0.00,,,0.00,Wunderground v.1.15,2013-03-26 15:17:00,
2013-03-26 11:22:00,42.1,26.6,29.97,WNW,295,5.0,10.0,54,0.00,,,0.00,Wunderground v.1.15,2013-03-26 15:22:00,
2013-03-26 11:27:00,42.1,27.1,29.97,WNW,291,3.0,10.0,55,0.00,,,0.00,Wunderground v.1.15,2013-03-26 15:27:00,
2013-03-26 11:32:00,42.4,27.8,29.97,West,278,6.0,7.0,56,0.00,,,0.00,Wunderground v.1.15,2013-03-26 15:32:00,
2013-03-26 11:37:00,42.5,27.5,29.97,WNW,292,1.0,9.0,55,0.00,,,0.00,Wunderground v.1.15,2013-03-26 15:37:00,
2013-03-26 11:42:00,42.8,27.3,29.97,WNW,288,9.0,9.0,54,0.00,,,0.00,Wunderground v.1.15,2013-03-26 15:42:00,
2013-03-26 11:47:00,42.8,27.3,29.97,WNW,287,1.0,10.0,54,0.00,,,0.00,Wunderground v.1.15,2013-03-26 15:47:00,
2013-03-26 11:52:00,42.7,26.3,29.97,West,265,3.0,10.0,52,0.00,,,0.00,Wunderground v.1.15,2013-03-26 15:52:00,
2013-03-26 11:57:00,42.7,26.7,29.98,NW,307,11.0,12.0,53,0.00,,,0.00,Wunderground v.1.15,2013-03-26 15:57:00,
2013-03-26 12:02:00,42.6,26.6,29.98,WNW,296,2.0,5.0,53,0.00,,,0.00,Wunderground v.1.15,2013-03-26 16:02:00,
2013-03-26 12:07:00,42.7,26.7,29.98,NW,309,1.0,10.0,53,0.00,,,0.00,Wunderground v.1.15,2013-03-26 16:07:00,
2013-03-26 12:12:00,42.9,26.9,29.98,NW,304,1.0,6.0,53,0.00,,,0.00,Wunderground v.1.15,2013-03-26 16:12:00,
2013-03-26 12:17:00,42.6,26.2,29.98,WNW,298,6.0,10.0,52,0.00,,,0.00,Wunderground v.1.15,2013-03-26 16:17:00,
2013-03-26 12:22:00,42.3,26.4,29.99,NW,309,1.0,5.0,53,0.00,,,0.00,Wunderground v.1.15,2013-03-26 16:22:00,
2013-03-26 12:27:00,42.3,26.8,29.99,WNW,290,4.0,9.0,54,0.00,,,0.00,Wunderground v.1.15,2013-03-26 16:27:00,
2013-03-26 12:32:00,42.4,26.9,29.99,WNW,295,0.0,4.0,54,0.00,,,0.00,Wunderground v.1.15,2013-03-26 16:32:00,
2013-03-26 12:37:00,42.8,27.3,29.99,NE,48,0.0,4.0,54,0.00,,,0.00,Wunderground v.1.15,2013-03-26 16:37:00,
2013-03-26 12:42:00,42.9,27.4,29.99,NW,319,1.0,4.0,54,0.00,,,0.00,Wunderground v.1.15,2013-03-26 16:42:00,
2013-03-26 12:47:00,42.9,26.9,29.99,WNW,290,4.0,6.0,53,0.00,,,0.00,Wunderground v.1.15,2013-03-26 16:47:00,
2013-03-26 12:52:00,42.5,26.6,29.99,NW,314,3.0,7.0,53,0.00,,,0.00,Wunderground v.1.15,2013-03-26 16:52:00,
2013-03-26 12:57:00,42.2,27.6,29.99,NW,310,5.0,7.0,56,0.00,,,0.00,Wunderground v.1.15,2013-03-26 16:57:00,
2013-03-26 13:02:00,42.2,27.2,29.99,WNW,300,4.0,5.0,55,0.00,,,0.00,Wunderground v.1.15,2013-03-26 17:02:00,
2013-03-26 13:07:00,42.2,26.3,29.99,NW,317,4.0,11.0,53,0.00,,,0.00,Wunderground v.1.15,2013-03-26 17:07:00,
2013-03-26 13:12:00,42.3,26.8,30.00,WNW,302,4.0,4.0,54,0.00,,,0.00,Wunderground v.1.15,2013-03-26 17:12:00,
2013-03-26 13:17:00,42.5,27.0,29.99,WNW,299,6.0,11.0,54,0.00,,,0.00,Wunderground v.1.15,2013-03-26 17:17:00,
2013-03-26 13:22:00,42.6,27.1,29.99,NNW,330,4.0,10.0,54,0.00,,,0.00,Wunderground v.1.15,2013-03-26 17:22:00,
2013-03-26 13:27:00,42.5,27.0,29.99,NW,315,6.0,11.0,54,0.00,,,0.00,Wunderground v.1.15,2013-03-26 17:27:00,
2013-03-26 13:30:00,42.4,27.4,30.00,NW,315,4.0,12.0,55,0.00,,,-99.99,WeatherLink 6.0.0,2013-03-26 17:30:00,
2013-03-26 13:33:00,42.3,26.8,30.00,WNW,287,1.0,5.0,54,0.00,,,0.00,Wunderground v.1.15,2013-03-26 17:33:00,
2013-03-26 13:38:00,42.0,27.0,30.00,NW,308,4.0,11.0,55,0.00,,,0.00,Wunderground v.1.15,2013-03-26 17:38:00,
2013-03-26 13:43:00,42.2,28.0,30.00,NNW,347,1.0,4.0,57,0.00,,,0.00,Wunderground v.1.15,2013-03-26 17:43:00,
2013-03-26 13:48:00,42.5,27.9,30.00,WNW,288,2.0,7.0,56,0.00,,,0.00,Wunderground v.1.15,2013-03-26 17:48:00,
2013-03-26 13:53:00,42.8,27.7,30.00,West,277,5.0,9.0,55,0.00,,,0.00,Wunderground v.1.15,2013-03-26 17:53:00,
2013-03-26 13:58:00,42.6,27.1,30.00,NW,313,7.0,14.0,54,0.00,,,0.00,Wunderground v.1.15,2013-03-26 17:58:00,
2013-03-26 14:03:00,42.2,27.2,30.00,NW,307,6.0,9.0,55,0.00,,,0.00,Wunderground v.1.15,2013-03-26 18:03:00,
2013-03-26 14:08:00,42.4,27.8,30.00,WNW,300,7.0,11.0,56,0.00,,,0.00,Wunderground v.1.15,2013-03-26 18:08:00,
2013-03-26 14:13:00,42.7,27.2,30.00,NW,311,3.0,10.0,54,0.00,,,0.00,Wunderground v.1.15,2013-03-26 18:13:00,
2013-03-26 14:18:00,42.6,27.5,30.00,WNW,296,3.0,10.0,55,0.00,,,0.00,Wunderground v.1.15,2013-03-26 18:18:00,
2013-03-26 14:23:00,42.7,28.1,30.00,WNW,284,1.0,5.0,56,0.00,,,0.00,Wunderground v.1.15,2013-03-26 18:23:00,
2013-03-26 14:28:00,43.1,28.5,30.00,WNW,293,4.0,5.0,56,0.00,,,0.00,Wunderground v.1.15,2013-03-26 18:28:00,
2013-03-26 14:33:00,43.5,28.4,29.99,WNW,292,4.0,12.0,55,0.00,,,-99.99,WeatherLink 6.0.0,2013-03-26 18:33:00,
2013-03-26 14:38:00,44.5,28.4,29.99,NW,307,5.0,9.0,53,0.00,,,0.00,Wunderground v.1.15,2013-03-26 18:38:00,
2013-03-26 14:43:00,44.2,28.1,30.00,WNW,289,3.0,14.0,53,0.00,,,0.00,Wunderground v.1.15,2013-03-26 18:43:00,
2013-03-26 14:48:00,43.8,28.2,30.00,NNE,14,1.0,14.0,54,0.00,,,0.00,Wunderground v.1.15,2013-03-26 18:48:00,
2013-03-26 14:53:00,43.6,28.0,30.00,WNW,299,2.0,12.0,54,0.00,,,0.00,Wunderground v.1.15,2013-03-26 18:53:00,
2013-03-26 14:58:00,43.4,27.8,30.00,NW,318,1.0,12.0,54,0.00,,,0.00,Wunderground v.1.15,2013-03-26 18:58:00,
2013-03-26 15:03:00,43.2,27.7,30.00,NW,308,1.0,6.0,54,0.00,,,0.00,Wunderground v.1.15,2013-03-26 19:03:00,
2013-03-26 15:08:00,43.3,27.8,30.00,NW,317,3.0,6.0,54,0.00,,,0.00,Wunderground v.1.15,2013-03-26 19:08:00,
2013-03-26 15:13:00,43.7,27.7,30.00,NNW,333,3.0,8.0,53,0.00,,,0.00,Wunderground v.1.15,2013-03-26 19:13:00,
2013-03-26 15:18:00,44.0,28.0,30.00,NW,306,2.0,9.0,53,0.00,,,0.00,Wunderground v.1.15,2013-03-26 19:18:00,
2013-03-26 15:23:00,44.2,27.7,30.00,WNW,288,2.0,6.0,52,0.00,,,0.00,Wunderground v.1.15,2013-03-26 19:23:00,
2013-03-26 15:28:00,44.2,28.1,30.00,NNW,330,4.0,7.0,53,0.00,,,0.00,Wunderground v.1.15,2013-03-26 19:28:00,
2013-03-26 15:33:00,44.2,28.1,30.00,NW,311,2.0,10.0,53,0.00,,,0.00,Wunderground v.1.15,2013-03-26 19:33:00,
2013-03-26 15:38:00,44.0,27.0,30.00,NW,315,4.0,10.0,51,0.00,,,0.00,Wunderground v.1.15,2013-03-26 19:38:00,
2013-03-26 15:44:00,43.9,27.9,30.00,NW,308,7.0,10.0,53,0.00,,,0.00,Wunderground v.1.15,2013-03-26 19:44:00,
2013-03-26 15:49:00,43.6,27.6,30.00,WNW,288,0.0,13.0,53,0.00,,,0.00,Wunderground v.1.15,2013-03-26 19:49:00,
2013-03-26 15:54:00,43.7,27.7,30.00,NW,313,4.0,7.0,53,0.00,,,0.00,Wunderground v.1.15,2013-03-26 19:54:00,
2013-03-26 15:59:00,43.8,28.2,30.01,West,279,5.0,7.0,54,0.00,,,0.00,Wunderground v.1.15,2013-03-26 19:59:00,
2013-03-26 16:04:00,43.8,28.2,30.01,NW,307,0.0,5.0,54,0.00,,,0.00,Wunderground v.1.15,2013-03-26 20:04:00,
2013-03-26 16:09:00,43.7,27.2,30.00,WNW,296,1.0,6.0,52,0.00,,,0.00,Wunderground v.1.15,2013-03-26 20:09:00,
2013-03-26 16:14:00,43.6,27.6,30.01,West,281,4.0,6.0,53,0.00,,,0.00,Wunderground v.1.15,2013-03-26 20:14:00,
2013-03-26 16:19:00,43.5,28.8,30.01,NW,322,2.0,6.0,56,0.00,,,0.00,Wunderground v.1.15,2013-03-26 20:19:00,
2013-03-26 16:24:00,43.6,28.0,30.01,WNW,293,3.0,4.0,54,0.00,,,0.00,Wunderground v.1.15,2013-03-26 20:24:00,
2013-03-26 16:29:00,43.6,28.0,30.01,West,281,4.0,11.0,54,0.00,,,0.00,Wunderground v.1.15,2013-03-26 20:29:00,
2013-03-26 16:30:00,43.5,27.9,30.01,WNW,292,3.0,12.0,54,0.00,,,-99.99,WeatherLink 6.0.0,2013-03-26 20:30:00,
2013-03-26 16:34:00,43.5,27.5,30.01,NW,323,3.0,10.0,53,0.00,,,0.00,Wunderground v.1.15,2013-03-26 20:34:00,
2013-03-26 16:39:00,43.7,29.0,30.01,NW,315,2.0,10.0,56,0.00,,,0.00,Wunderground v.1.15,2013-03-26 20:39:00,
2013-03-26 16:44:00,43.9,28.8,30.01,NE,46,0.0,5.0,55,0.00,,,0.00,Wunderground v.1.15,2013-03-26 20:44:00,
2013-03-26 16:49:00,44.1,28.5,30.01,NNW,344,5.0,7.0,54,0.00,,,0.00,Wunderground v.1.15,2013-03-26 20:49:00,
2013-03-26 16:54:00,44.0,28.0,30.02,WNW,295,1.0,13.0,53,0.00,,,0.00,Wunderground v.1.15,2013-03-26 20:54:00,
2013-03-26 16:59:00,43.7,27.7,30.02,NW,315,1.0,13.0,53,0.00,,,0.00,Wunderground v.1.15,2013-03-26 20:59:00,
2013-03-26 17:04:00,43.6,27.6,30.02,NNW,333,5.0,7.0,53,0.00,,,0.00,Wunderground v.1.15,2013-03-26 21:04:00,
2013-03-26 17:09:00,43.4,27.8,30.02,NW,306,6.0,12.0,54,0.00,,,0.00,Wunderground v.1.15,2013-03-26 21:09:00,
2013-03-26 17:14:00,43.4,28.3,30.02,NW,309,2.0,5.0,55,0.00,,,0.00,Wunderground v.1.15,2013-03-26 21:14:00,
2013-03-26 17:19:00,43.5,27.9,30.02,North,11,3.0,6.0,54,0.00,,,0.00,Wunderground v.1.15,2013-03-26 21:19:00,
2013-03-26 17:24:00,43.4,28.3,30.03,WNW,290,11.0,11.0,55,0.00,,,0.00,Wunderground v.1.15,2013-03-26 21:24:00,
2013-03-26 17:29:00,43.2,28.1,30.03,NW,310,1.0,14.0,55,0.00,,,0.00,Wunderground v.1.15,2013-03-26 21:29:00,
2013-03-26 17:34:00,43.0,28.4,30.03,West,273,7.0,14.0,56,0.00,,,0.00,Wunderground v.1.15,2013-03-26 21:34:00,
2013-03-26 17:39:00,42.8,27.7,30.03,NW,316,4.0,14.0,55,0.00,,,0.00,Wunderground v.1.15,2013-03-26 21:39:00,
2013-03-26 17:44:00,42.8,28.2,30.03,WNW,296,6.0,10.0,56,0.00,,,0.00,Wunderground v.1.15,2013-03-26 21:44:00,
2013-03-26 17:49:00,42.7,28.1,30.04,NNW,334,6.0,10.0,56,0.00,,,0.00,Wunderground v.1.15,2013-03-26 21:49:00,
2013-03-26 17:54:00,42.5,27.9,30.04,NW,315,3.0,11.0,56,0.00,,,0.00,Wunderground v.1.15,2013-03-26 21:54:00,
2013-03-26 17:59:00,42.4,28.2,30.04,WNW,303,5.0,11.0,57,0.00,,,0.00,Wunderground v.1.15,2013-03-26 21:59:00,
2013-03-26 18:04:00,42.4,28.2,30.04,NW,310,3.0,10.0,57,0.00,,,0.00,Wunderground v.1.15,2013-03-26 22:04:00,
2013-03-26 18:09:00,42.3,28.6,30.04,WNW,302,6.0,10.0,58,0.00,,,0.00,Wunderground v.1.15,2013-03-26 22:09:00,
2013-03-26 18:14:00,42.3,27.7,30.05,WNW,295,5.0,9.0,56,0.00,,,0.00,Wunderground v.1.15,2013-03-26 22:14:00,
2013-03-26 18:19:00,42.2,28.0,30.05,NW,323,2.0,9.0,57,0.00,,,0.00,Wunderground v.1.15,2013-03-26 22:19:00,
2013-03-26 18:24:00,42.1,28.4,30.05,NW,315,3.0,10.0,58,0.00,,,0.00,Wunderground v.1.15,2013-03-26 22:24:00,
2013-03-26 18:29:00,41.9,28.6,30.05,West,277,6.0,10.0,59,0.00,,,0.00,Wunderground v.1.15,2013-03-26 22:29:00,
2013-03-26 18:30:00,41.9,28.2,30.05,NW,315,4.0,13.0,58,0.00,,,-99.99,WeatherLink 6.0.0,2013-03-26 22:30:00,
2013-03-26 18:34:00,41.9,28.6,30.06,North,360,3.0,6.0,59,0.00,,,0.00,Wunderground v.1.15,2013-03-26 22:34:00,
2013-03-26 18:39:00,41.8,28.1,30.06,NW,319,5.0,7.0,58,0.00,,,0.00,Wunderground v.1.15,2013-03-26 22:39:00,
2013-03-26 18:44:00,41.7,28.8,30.06,NW,306,1.0,10.0,60,0.00,,,0.00,Wunderground v.1.15,2013-03-26 22:44:00,
2013-03-26 18:49:00,41.5,29.0,30.07,WNW,298,1.0,10.0,61,0.00,,,0.00,Wunderground v.1.15,2013-03-26 22:49:00,
2013-03-26 18:54:00,41.3,28.9,30.07,NW,318,3.0,7.0,61,0.00,,,0.00,Wunderground v.1.15,2013-03-26 22:54:00,
2013-03-26 18:59:00,41.1,28.7,30.07,WNW,301,8.0,12.0,61,0.00,,,0.00,Wunderground v.1.15,2013-03-26 22:59:00,
2013-03-26 19:04:00,40.8,28.8,30.07,NW,322,4.0,11.0,62,0.00,,,0.00,Wunderground v.1.15,2013-03-26 23:04:00,
2013-03-26 19:09:00,40.7,28.7,30.07,WNW,289,3.0,11.0,62,0.00,,,0.00,Wunderground v.1.15,2013-03-26 23:09:00,
2013-03-26 19:14:00,40.6,28.6,30.08,WNW,300,3.0,10.0,62,0.00,,,0.00,Wunderground v.1.15,2013-03-26 23:14:00,
2013-03-26 19:19:00,40.4,28.8,30.08,NW,318,1.0,10.0,63,0.00,,,0.00,Wunderground v.1.15,2013-03-26 23:19:00,
2013-03-26 19:24:00,40.3,28.7,30.09,WNW,284,2.0,4.0,63,0.00,,,0.00,Wunderground v.1.15,2013-03-26 23:24:00,
2013-03-26 19:29:00,40.2,29.0,30.09,WNW,295,1.0,3.0,64,0.00,,,0.00,Wunderground v.1.15,2013-03-26 23:29:00,
2013-03-26 19:34:00,40.1,28.9,30.09,WNW,291,4.0,5.0,64,0.00,,,0.00,Wunderground v.1.15,2013-03-26 23:34:00,
2013-03-26 19:39:00,40.0,28.8,30.09,West,280,0.0,3.0,64,0.00,,,0.00,Wunderground v.1.15,2013-03-26 23:39:00,
2013-03-26 19:44:00,39.9,28.7,30.10,WNW,292,2.0,4.0,64,0.00,,,0.00,Wunderground v.1.15,2013-03-26 23:44:00,
2013-03-26 19:49:00,39.8,28.6,30.10,WNW,298,4.0,4.0,64,0.00,,,0.00,Wunderground v.1.15,2013-03-26 23:49:00,
2013-03-26 19:54:00,39.8,28.2,30.10,WNW,294,7.0,10.0,63,0.00,,,0.00,Wunderground v.1.15,2013-03-26 23:54:00,
2013-03-26 19:59:00,39.8,28.6,30.10,WNW,283,0.0,4.0,64,0.00,,,0.00,Wunderground v.1.15,2013-03-26 23:59:00,
2013-03-26 20:04:00,39.7,28.5,30.10,WNW,288,1.0,5.0,64,0.00,,,0.00,Wunderground v.1.15,2013-03-27 00:04:00,
2013-03-26 20:09:00,39.7,27.3,30.10,NW,309,4.0,4.0,61,0.00,,,0.00,Wunderground v.1.15,2013-03-27 00:09:00,
2013-03-26 20:15:00,39.7,26.9,30.10,North,11,0.0,12.0,60,0.00,,,0.00,Wunderground v.1.15,2013-03-27 00:15:00,
2013-03-26 20:20:00,39.7,26.9,30.10,NW,313,4.0,5.0,60,0.00,,,0.00,Wunderground v.1.15,2013-03-27 00:20:00,
2013-03-26 20:25:00,39.7,26.5,30.10,NW,313,3.0,6.0,59,0.00,,,0.00,Wunderground v.1.15,2013-03-27 00:25:00,
2013-03-26 20:30:00,39.7,26.5,30.11,NNW,333,3.0,9.0,59,0.00,,,0.00,Wunderground v.1.15,2013-03-27 00:30:00,
2013-03-26 20:35:00,39.6,26.4,30.11,WNW,297,4.0,10.0,59,0.00,,,0.00,Wunderground v.1.15,2013-03-27 00:35:00,
2013-03-26 20:40:00,39.6,26.0,30.11,WNW,294,3.0,5.0,58,0.00,,,0.00,Wunderground v.1.15,2013-03-27 00:40:00,
2013-03-26 20:45:00,39.5,25.9,30.11,NW,320,2.0,7.0,58,0.00,,,0.00,Wunderground v.1.15,2013-03-27 00:45:00,
2013-03-26 20:50:00,39.5,25.9,30.11,NW,304,0.0,5.0,58,0.00,,,0.00,Wunderground v.1.15,2013-03-27 00:50:00,
2013-03-26 20:55:00,39.4,25.8,30.11,WNW,299,3.0,11.0,58,0.00,,,0.00,Wunderground v.1.15,2013-03-27 00:55:00,
2013-03-26 21:00:00,39.4,25.4,30.11,WNW,283,6.0,6.0,57,0.00,,,0.00,Wunderground v.1.15,2013-03-27 01:00:00,
2013-03-26 21:05:00,39.4,25.4,30.11,WNW,296,4.0,9.0,57,0.00,,,0.00,Wunderground v.1.15,2013-03-27 01:05:00,
2013-03-26 21:10:00,39.4,25.8,30.11,NW,308,10.0,16.0,58,0.00,,,0.00,Wunderground v.1.15,2013-03-27 01:10:00,
2013-03-26 21:15:00,39.3,25.3,30.11,WNW,296,2.0,16.0,57,0.00,,,0.00,Wunderground v.1.15,2013-03-27 01:15:00,
2013-03-26 21:20:00,39.2,25.2,30.11,NW,306,3.0,5.0,57,0.00,,,0.00,Wunderground v.1.15,2013-03-27 01:20:00,
2013-03-26 21:25:00,39.0,25.5,30.12,WNW,291,2.0,6.0,58,0.00,,,0.00,Wunderground v.1.15,2013-03-27 01:25:00,
2013-03-26 21:30:00,38.8,25.3,30.12,NW,304,3.0,4.0,58,0.00,,,0.00,Wunderground v.1.15,2013-03-27 01:30:00,
2013-03-26 21:36:00,38.6,25.1,30.12,WNW,300,1.0,4.0,58,0.00,,,0.00,Wunderground v.1.15,2013-03-27 01:36:00,
2013-03-26 21:41:00,38.3,25.6,30.13,WNW,300,0.0,1.0,60,0.00,,,0.00,Wunderground v.1.15,2013-03-27 01:41:00,
2013-03-26 21:46:00,38.1,25.4,30.13,WNW,292,2.0,5.0,60,0.00,,,0.00,Wunderground v.1.15,2013-03-27 01:46:00,
2013-03-26 21:51:00,38.0,24.9,30.13,WNW,287,6.0,7.0,59,0.00,,,0.00,Wunderground v.1.15,2013-03-27 01:51:00,
2013-03-26 21:56:00,37.9,24.8,30.14,NW,304,0.0,7.0,59,0.00,,,0.00,Wunderground v.1.15,2013-03-27 01:56:00,
2013-03-26 22:01:00,37.7,25.5,30.14,WNW,303,0.0,1.0,61,0.00,,,0.00,Wunderground v.1.15,2013-03-27 02:01:00,
2013-03-26 22:06:00,37.4,25.2,30.14,NW,304,0.0,1.0,61,0.00,,,0.00,Wunderground v.1.15,2013-03-27 02:06:00,
2013-03-26 22:11:00,37.0,25.2,30.14,NW,304,0.0,0.0,62,0.00,,,0.00,Wunderground v.1.15,2013-03-27 02:11:00,
2013-03-26 22:17:00,36.5,25.1,30.14,NW,304,0.0,0.0,63,0.00,,,0.00,Wunderground v.1.15,2013-03-27 02:17:00,
2013-03-26 22:22:00,36.1,25.1,30.14,NW,304,0.0,0.0,64,0.00,,,0.00,Wunderground v.1.15,2013-03-27 02:22:00,
2013-03-26 22:27:00,35.6,25.4,30.14,NW,304,0.0,0.0,66,0.00,,,0.00,Wunderground v.1.15,2013-03-27 02:27:00,
2013-03-26 22:32:00,35.1,25.9,30.15,WNW,303,0.0,0.0,69,0.00,,,0.00,Wunderground v.1.15,2013-03-27 02:32:00,
2013-03-26 22:37:00,34.6,25.1,30.15,NW,304,0.0,1.0,68,0.00,,,0.00,Wunderground v.1.15,2013-03-27 02:37:00,
2013-03-26 22:42:00,34.4,25.3,30.15,NW,304,0.0,0.0,69,0.00,,,0.00,Wunderground v.1.15,2013-03-27 02:42:00,
2013-03-26 22:47:00,34.2,25.4,30.15,NW,304,0.0,1.0,70,0.00,,,0.00,Wunderground v.1.15,2013-03-27 02:47:00,
2013-03-26 22:52:00,34.0,25.6,30.15,NW,304,0.0,0.0,71,0.00,,,0.00,Wunderground v.1.15,2013-03-27 02:52:00,
2013-03-26 22:57:00,33.9,25.8,30.15,WNW,303,0.0,0.0,72,0.00,,,0.00,Wunderground v.1.15,2013-03-27 02:57:00,
2013-03-26 23:02:00,33.7,25.3,30.15,NW,304,0.0,1.0,71,0.00,,,0.00,Wunderground v.1.15,2013-03-27 03:02:00,
2013-03-26 23:07:00,33.6,25.2,30.15,WNW,303,0.0,1.0,71,0.00,,,0.00,Wunderground v.1.15,2013-03-27 03:07:00,
2013-03-26 23:12:00,33.5,25.4,30.15,South,173,0.0,1.0,72,0.00,,,0.00,Wunderground v.1.15,2013-03-27 03:12:00,
2013-03-26 23:17:00,33.7,25.6,30.15,South,174,0.0,1.0,72,0.00,,,0.00,Wunderground v.1.15,2013-03-27 03:17:00,
2013-03-26 23:22:00,33.7,26.0,30.15,South,173,0.0,0.0,73,0.00,,,0.00,Wunderground v.1.15,2013-03-27 03:22:00,
2013-03-26 23:27:00,33.7,26.6,30.15,South,174,0.0,0.0,75,0.00,,,0.00,Wunderground v.1.15,2013-03-27 03:27:00,
2013-03-26 23:32:00,33.7,26.0,30.15,South,174,0.0,0.0,73,0.00,,,0.00,Wunderground v.1.15,2013-03-27 03:32:00,
2013-03-26 23:37:00,34.0,25.9,30.16,South,174,0.0,1.0,72,0.00,,,0.00,Wunderground v.1.15,2013-03-27 03:37:00,
2013-03-26 23:42:00,34.3,26.2,30.16,South,173,0.0,1.0,72,0.00,,,0.00,Wunderground v.1.15,2013-03-27 03:42:00,
2013-03-26 23:47:00,34.4,26.3,30.16,South,173,0.0,1.0,72,0.00,,,0.00,Wunderground v.1.15,2013-03-27 03:47:00,
2013-03-26 23:52:00,34.4,26.0,30.16,South,174,0.0,1.0,71,0.00,,,0.00,Wunderground v.1.15,2013-03-27 03:52:00,
2013-03-26 23:57:00,34.2,25.8,30.16,South,173,0.0,1.0,71,0.00,,,0.00,Wunderground v.1.15,2013-03-27 03:57:00,